Total_Precipitation_Accumulation
2.02 2.13 2.16 2.17 2.25 2.24 2.36 2.55 2.78 2.68 2.40 2.21 2.07 2.00 2.06 2.20 2.50 2.31 2.23 2.22 1.98 1.85 1.80 1.82 1.87 1.90 2.07 2.34 2.52 2.57 2.51 2.48 2.50 2.56 2.60 2.72 2.92 3.07
1.83 1.88 1.88 1.89 2.12 2.22 2.25 2.38 2.63 2.77 2.70 2.32 2.08 1.89 1.98 1.99 2.35 2.25 2.30 2.42 2.12 1.86 1.77 1.81 1.85 1.84 1.90 1.97 2.10 2.22 2.30 2.31 2.27 2.29 2.38 2.46 2.56 2.77
1.68 1.66 1.67 1.79 1.94 1.98 2.06 2.17 2.41 2.67 2.79 2.51 2.20 2.01 2.11 2.19 2.26 2.21 2.13 2.07 1.97 1.98 1.83 1.78 1.94 2.10 1.99 1.85 1.82 1.83 1.94 2.05 2.11 2.13 2.20 2.32 2.38 2.46
1.49 1.51 1.40 1.49 1.70 1.81 1.94 2.00 2.14 2.33 2.50 2.46 2.23 2.15 2.13 2.16 2.29 2.26 2.04 1.85 1.75 1.91 1.82 1.75 1.88 2.23 2.27 2.01 1.88 1.76 1.71 1.71 1.77 1.87 1.97 2.06 2.18 2.32
1.34 1.37 1.39 1.54 1.62 1.74 1.86 1.91 2.05 2.09 2.31 2.31 2.14 2.15 2.15 2.14 2.29 2.19 1.96 1.96 1.59 1.62 1.68 1.72 1.79 2.33 2.70 2.44 2.13 1.94 1.74 1.60 1.52 1.61 1.73 1.84 1.88 1.97
1.27 1.29 1.34 1.45 1.57 1.77 1.83 1.94 2.09 2.20 2.29 2.34 2.25 2.24 2.24 2.28 2.39 2.38 2.18 2.00 1.73 1.41 1.54 1.66 1.83 2.25 2.82 2.97 2.54 2.24 2.00 1.79 1.60 1.51 1.53 1.55 1.56 1.57
1.33 1.29 1.23 1.29 1.44 1.59 1.65 1.88 2.13 2.29 2.30 2.36 2.32 2.30 2.28 2.38 2.27 2.17 2.15 2.02 1.77 1.56 1.62 1.54 1.77 2.38 2.99 3.32 3.11 2.50 2.06 1.84 1.70 1.55 1.47 1.41 1.37 1.36
1.36 1.33 1.17 1.15 1.19 1.26 1.32 1.44 1.75 2.03 2.18 2.28 2.26 2.21 2.16 2.21 2.20 2.12 2.15 2.17 1.97 1.61 1.66 1.73 1.99 2.79 3.33 3.55 3.48 2.67 1.99 1.75 1.67 1.60 1.53 1.44 1.33 1.26
1.35 1.40 1.23 1.06 1.16 1.21 1.20 1.19 1.32 1.56 1.87 2.13 2.19 2.03 2.10 2.18 2.27 2.25 2.17 2.17 2.07 1.74 1.74 1.85 2.16 2.82 3.21 3.58 3.54 2.79 2.17 1.82 1.70 1.64 1.56 1.47 1.38 1.29
1.25 1.27 1.33 1.29 1.15 1.16 1.22 1.31 1.45 1.55 1.63 1.69 1.90 1.99 2.02 2.03 2.04 2.07 2.14 2.18 2.04 1.74 1.79 2.05 2.16 2.57 2.96 3.46 3.41 2.73 2.22 1.89 1.72 1.63 1.54 1.42 1.34 1.30
1.06 1.01 1.05 1.08 1.04 1.08 1.25 1.49 1.66 1.83 1.65 1.62 1.71 1.89 1.93 1.82 1.72 1.86 2.15 2.28 2.10 1.77 1.69 1.95 2.11 2.31 2.67 3.01 2.89 2.55 2.19 1.96 1.75 1.58 1.48 1.41 1.34 1.33
1.05 1.01 1.02 1.02 1.01 1.09 1.29 1.63 1.84 1.93 1.73 1.61 1.73 1.90 1.85 1.79 1.80 1.91 2.15 2.20 2.09 1.98 1.70 1.84 1.96 2.12 2.51 2.60 2.39 2.13 2.04 2.03 1.86 1.69 1.55 1.42 1.33 1.25
0.99 1.04 1.06 1.06 1.02 1.10 1.32 1.57 1.80 1.85 1.77 1.73 1.79 1.85 1.90 1.93 1.85 1.86 1.97 2.00 2.03 1.96 1.60 1.80 2.01 2.11 2.34 2.43 2.31 2.13 1.92 1.89 1.86 1.90 1.85 1.61 1.42 1.32
1.03 1.03 1.06 1.07 1.06 1.17 1.28 1.58 1.85 1.99 1.86 1.73 1.67 1.67 1.66 1.69 1.68 1.60 1.60 1.62 1.67 1.74 1.66 1.80 2.10 2.24 2.22 2.14 2.23 2.13 2.04 1.97 1.87 1.91 1.99 1.89 1.69 1.61
0.89 1.02 1.01 0.97 1.11 1.37 1.54 1.72 1.93 2.08 1.96 1.72 1.61 1.51 1.45 1.44 1.41 1.44 1.44 1.42 1.36 1.31 1.25 1.48 1.84 2.07 2.14 2.08 2.09 2.06 2.20 2.35 2.19 2.11 2.01 1.88 1.76 1.65
0.74 0.94 1.08 1.14 1.28 1.57 1.80 1.93 2.00 1.97 1.80 1.62 1.50 1.45 1.38 1.36 1.38 1.35 1.39 1.38 1.41 1.37 1.25 1.31 1.57 1.86 2.00 1.93 1.98 2.05 2.16 2.57 2.54 2.29 2.14 2.06 1.91 1.76
0.71 0.91 1.09 1.20 1.41 1.63 1.76 1.78 1.77 1.73 1.68 1.55 1.44 1.38 1.35 1.34 1.34 1.32 1.35 1.31 1.35 1.34 1.36 1.38 1.48 1.62 1.69 1.77 1.91 1.94 2.09 2.31 2.35 2.19 2.13 2.18 2.11 1.92
0.75 0.99 1.18 1.28 1.46 1.59 1.69 1.66 1.58 1.54 1.49 1.44 1.39 1.32 1.28 1.27 1.31 1.28 1.25 1.24 1.28 1.25 1.22 1.26 1.30 1.37 1.48 1.59 1.73 1.82 1.85 2.01 2.06 2.01 1.89 1.99 2.14 2.04
0.78 1.03 1.24 1.37 1.48 1.52 1.54 1.52 1.49 1.42 1.34 1.31 1.29 1.25 1.22 1.22 1.21 1.19 1.15 1.16 1.16 1.13 1.08 1.11 1.15 1.21 1.36 1.63 1.73 1.74 1.73 1.77 1.86 1.84 1.78 1.81 1.99 2.06
0.86 1.03 1.23 1.31 1.36 1.41 1.41 1.39 1.37 1.33 1.27 1.27 1.31 1.28 1.19 1.14 1.08 1.07 1.08 1.06 1.03 0.99 1.00 1.02 1.03 1.14 1.31 1.51 1.79 1.83 1.65 1.51 1.56 1.64 1.60 1.65 1.81 1.84
0.86 0.97 1.05 1.14 1.22 1.28 1.27 1.24 1.23 1.20 1.15 1.15 1.19 1.20 1.15 1.07 1.00 0.94 0.94 0.87 0.85 0.88 0.95 1.04 1.04 0.97 0.99 1.16 1.42 1.58 1.57 1.56 1.50 1.48 1.45 1.56 1.58 1.47
0.83 0.89 0.91 0.93 1.00 1.07 1.04 1.00 1.02 1.01 0.99 1.01 1.02 1.05 1.08 1.04 0.95 0.89 0.86 0.86 0.88 0.86 0.87 0.88 0.85 0.85 0.95 1.16 1.33 1.43 1.41 1.32 1.31 1.27 1.23 1.23 1.22 1.34
0.73 0.75 0.79 0.80 0.78 0.80 0.84 0.84 0.88 0.94 0.97 0.97 0.96 0.96 0.94 0.90 0.85 0.82 0.82 0.80 0.77 0.76 0.80 0.87 0.88 0.90 0.96 1.05 1.19 1.24 1.18 1.13 1.14 1.15 1.20 1.22 1.14 1.19